Home   Weather   41°44'N, 72°43'W   Past weeks
Flag for USA

Past Weather in 41°44'N, 72°43'W, USA — Yesterday and Last 2 Weeks

Now
83 °F

Clear.


Feels Like: 90 °F
Forecast: 97 / 77 °F
Wind: 6 mph from South

Location: Hartford-Brainard Airport

Current Time: Jul 19, 2019 at 9:41:41 pm

Latest Report: Jul 19, 2019 at 8:53 pm


Visibility: 10 mi

Pressure: 29.79 "Hg

Humidity: 77%

Dew Point: 75 °F

Location of 41°44'N, 72°43'WLocation

Past Weather in 41°44'N, 72°43'W — Graph

°F

41°44'N, 72°43'W Temperature Yesterday

Maximum temperature yesterday: 78 °F (at 9:17 am)
Minimum temperature yesterday: 71 °F (at 8:53 pm)
Average temperature yesterday: 74 °F

High & Low Weather Summary for the Past Weeks

 TemperatureHumidityPressure
High93 °F (Jul 17, 2:53 pm)97% (Jul 6, 6:36 pm)30.16 "Hg (Jul 6, 6:36 pm)
Low62 °F (Jul 16, 5:53 am)29% (Jul 10, 4:53 pm)29.67 "Hg (Jul 12, 3:53 pm)
Average77 °F69%29.93 "Hg
* Reported Jul 4 7:53 pm — Jul 19 7:53 pm, 41°44'N, 72°43'W. Weather by CustomWeather, © 2019

Note: Actual official high and low records may vary slightly from our data, if they occured in-between our weather recording intervals... More about our weather records

Advertising

41°44'N, 72°43'W Weather History for the Previous 24 Hours

Scroll right to see more
 ConditionsComfort  
Time TempWeatherWind HumidityBarometerVisibility
7:53 pm
Fri, Jul 19
85 °FSunny.10 mph72%29.78 "Hg10 mi
6:53 pm87 °FSunny.12 mph67%29.79 "Hg10 mi
5:53 pm88 °FPartly sunny.8 mph67%29.79 "Hg10 mi
4:53 pm89 °FScattered clouds.12 mph65%29.80 "Hg10 mi
3:53 pm88 °FPassing clouds.10 mph63%29.81 "Hg10 mi
2:53 pm88 °FSunny.13 mph63%29.81 "Hg10 mi
1:53 pm86 °FSunny.9 mph65%29.83 "Hg10 mi
12:53 pm84 °FSunny.7 mph67%29.85 "Hg10 mi
11:53 am80 °FScattered clouds.3 mph71%29.88 "Hg10 mi
10:53 am79 °FScattered clouds.7 mph69%29.89 "Hg10 mi
10:00 am77 °FScattered clouds.7 mph71%29.89 "Hg10 mi
8:53 am74 °FPartly sunny.No wind69%29.90 "Hg10 mi
8:37 am73 °FPartly sunny.No wind74%29.90 "Hg10 mi
7:53 am71 °FPartly sunny.3 mph76%29.90 "Hg10 mi
6:53 am71 °FOvercast.No wind73%29.90 "Hg10 mi
5:53 am70 °FOvercast.No wind76%29.90 "Hg10 mi
4:53 am70 °FOvercast.3 mph76%29.89 "Hg10 mi
3:53 am70 °FMostly cloudy.5 mph73%29.89 "Hg10 mi
3:34 am70 °FOvercast.No wind73%29.89 "Hg10 mi
3:05 am70 °FOvercast.No wind76%29.89 "Hg10 mi
2:53 am70 °FMostly cloudy.3 mph76%29.89 "Hg10 mi
1:53 am70 °FOvercast.5 mph79%29.90 "Hg10 mi
12:53 am71 °FOvercast.5 mph73%29.91 "Hg10 mi
11:53 pm
Thu, Jul 18
71 °FOvercast.No wind73%29.92 "Hg10 mi
10:53 pm71 °FOvercast.6 mph73%29.91 "Hg10 mi
9:53 pm71 °FOvercast.3 mph73%29.91 "Hg10 mi
Weather by CustomWeather, © 2019

See weather overview